This is the latest recevied weather packets stored in our database for station/object KG2V. If no packets are shown the sender has not sent any weather packets the latest 10 day(s).
| Time | Temp. | Humidity | Pressure | Rain* | Wind** | Luminosity | Snow |
|---|---|---|---|---|---|---|---|
| 1777500095 | 7.78° C | 99% | 1003 hPa | 7.87 mm | - | 12 W/m² | - |
| 1777499792 | 7.78° C | 99% | 1003 hPa | 6.1 mm | - | 16 W/m² | - |
| 1777499489 | 7.78° C | 99% | 1002.9 hPa | 4.32 mm | - | 14 W/m² | - |
| 1777499187 | 7.78° C | 99% | 1002.9 hPa | 4.83 mm | - | 20 W/m² | - |
| 1777498883 | 7.78° C | 99% | 1002.7 hPa | 4.83 mm | - | 20 W/m² | - |
| 1777498580 | 7.78° C | 99% | 1002.7 hPa | 3.05 mm | - | 23 W/m² | - |
| 1777498276 | 7.78° C | 99% | 1002.7 hPa | 3.05 mm | - | 24 W/m² | - |
| 1777497975 | 7.78° C | 99% | 1003.2 hPa | 4.83 mm | - | 19 W/m² | - |
| 1777497670 | 7.78° C | 99% | 1003 hPa | 4.83 mm | - | 23 W/m² | - |
| 1777497367 | 7.78° C | 99% | 1002.9 hPa | 3.05 mm | - | 26 W/m² | - |
| 1777497062 | 7.78° C | 99% | 1002.9 hPa | 1.27 mm | - | 29 W/m² | - |
| 1777496759 | 7.78° C | 99% | 1003.3 hPa | 1.27 mm | - | 25 W/m² | - |
| 1777496456 | 7.78° C | 99% | 1003.3 hPa | 1.78 mm | - | 28 W/m² | - |
| 1777496153 | 8.33° C | 99% | 1003.4 hPa | 3.05 mm | - | 32 W/m² | - |
| 1777495849 | 8.33° C | 99% | 1003.3 hPa | 1.27 mm | - | 26 W/m² | - |
| 1777495545 | 8.33° C | 99% | 1003.7 hPa | 1.27 mm | - | 28 W/m² | - |
| 1777495241 | 8.89° C | 99% | 1003.6 hPa | 1.78 mm | - | 27 W/m² | - |
| 1777494939 | 8.89° C | 99% | 1003.6 hPa | 1.78 mm | - | 25 W/m² | - |
| 1777494636 | 8.89° C | 99% | 1003.5 hPa | 1.78 mm | - | 33 W/m² | - |
| 1777494333 | 8.89° C | 99% | 1003.5 hPa | 3.05 mm | - | 36 W/m² | - |
| 1777494029 | 9.44° C | 99% | 1003.5 hPa | 1.27 mm | - | 25 W/m² | - |
| 1777493727 | 9.44° C | 99% | 1003.6 hPa | 1.78 mm | - | 25 W/m² | - |
| 1777493425 | 9.44° C | 99% | 1003.5 hPa | 1.78 mm | - | 33 W/m² | - |
| 1777493120 | 9.44° C | 99% | 1003.6 hPa | 0 mm | - | 45 W/m² | - |
| 1777492818 | 9.44° C | 99% | 1003.6 hPa | 1.27 mm | - | 66 W/m² | - |
* Rain latest hour (hover to see other rain measurements)
** Current wind speed in m/s (hover to see current wind gust speed)